Wind_Speed
33 32 36 40 40 38 35 32 29 27 24 19 20 23 23 24 27 27 26 27 31 28 28 29 27 24 18 22 29 26 21 22 23 25 25 22 19 19 18 16 15 15 15 13 10 10 8 6 4 3 3 2 2 4 6 6 5 4 3 2 2 3 3 3 3 3 4 5 5 7 10 11 11 12 11 11 11 11 11 12 13 14 15 15 15 16
32 38 43 42 36 33 33 31 28 27 26 23 23 25 24 24 26 26 25 27 32 29 26 27 29 27 19 21 24 22 21 21 21 23 22 20 19 19 18 17 17 17 17 15 12 12 10 8 7 6 6 5 4 4 5 5 4 2 1 1 1 2 3 3 3 5 5 5 6 8 9 11 12 12 12 11 11 11 11 12 12 13 14 15 16 16
36 45 44 36 32 30 29 30 30 29 27 28 28 27 26 23 23 24 24 28 33 29 28 27 27 28 23 21 19 18 21 20 17 19 19 18 19 18 18 18 17 17 18 17 14 13 12 9 9 8 7 7 6 5 4 4 3 2 2 2 2 3 4 5 6 7 7 7 8 8 9 10 11 11 11 10 10 11 11 12 13 14 15 17 17 17
39 44 39 31 29 30 29 28 31 31 29 32 32 30 29 24 25 26 24 30 36 28 30 32 29 28 25 23 20 19 22 21 17 18 18 17 17 16 18 17 14 14 17 18 17 15 14 12 10 9 7 8 7 5 4 4 3 3 4 4 4 5 5 6 8 9 10 10 10 10 10 10 10 11 11 11 12 12 13 14 15 16 17 18 18 18
36 33 32 30 28 31 31 28 30 33 32 34 34 32 31 27 27 27 23 31 36 26 28 33 26 25 28 27 24 22 22 22 20 20 20 18 18 16 17 18 14 14 17 19 19 18 16 13 10 9 8 8 8 6 5 4 4 4 5 5 6 6 7 8 9 10 11 12 12 12 12 12 12 13 13 13 14 14 15 16 17 18 19 20 20 19
32 25 28 32 30 31 32 31 32 33 34 35 35 34 33 29 28 25 23 37 36 25 29 31 19 14 24 29 26 22 20 22 20 18 18 18 19 20 19 20 17 16 18 21 21 19 18 15 12 11 8 7 7 7 6 5 6 6 6 7 7 7 7 8 9 10 11 12 13 14 14 15 15 15 15 16 16 16 17 18 18 19 19 20 20 19
31 25 26 31 32 32 33 35 34 33 34 37 36 35 33 32 30 25 24 41 34 26 30 31 20 12 16 23 24 21 20 22 21 18 19 18 19 22 21 21 21 19 21 22 22 22 21 17 14 12 9 7 7 7 7 7 7 7 7 8 8 8 8 9 10 11 13 14 15 15 16 16 16 16 16 17 18 18 19 19 19 18 18 19 19 18
34 28 28 31 34 35 37 39 36 35 36 38 36 34 31 31 32 26 22 34 35 29 26 30 31 21 18 23 23 23 22 22 24 22 20 20 21 24 25 24 24 22 22 23 22 23 22 18 15 13 10 8 8 8 8 8 8 8 8 9 10 10 10 11 12 13 14 15 16 17 17 17 17 17 17 17 19 20 20 18 17 17 18 18 18 17
34 33 31 33 35 37 41 40 37 35 36 37 34 32 30 28 31 28 23 27 37 28 19 28 34 21 18 27 25 25 26 24 26 25 22 23 24 25 26 26 25 23 22 23 23 23 21 18 16 15 12 10 10 11 10 9 9 9 10 11 12 12 13 13 14 15 15 16 17 17 18 18 18 17 17 18 19 19 18 16 16 17 18 19 19 19
30 35 32 31 37 39 39 37 36 36 34 34 32 29 27 25 28 25 20 23 39 25 16 29 33 15 12 28 29 26 30 28 27 27 25 26 26 25 27 26 26 25 23 24 24 23 21 20 18 16 14 13 12 12 11 11 11 11 12 12 13 14 14 14 15 15 16 17 17 17 18 18 18 18 18 18 18 17 16 17 18 18 19 19 19 20
27 33 32 32 36 37 36 34 35 36 31 30 30 29 27 26 27 21 17 20 27 14 18 32 35 21 10 25 36 32 33 34 32 31 28 28 28 27 27 27 27 26 25 24 22 22 21 21 19 18 17 16 15 14 14 13 13 13 13 13 13 14 14 14 15 15 16 17 17 18 18 19 19 18 17 16 15 16 17 18 19 20 20 20 19 19
28 30 34 35 34 33 34 33 33 34 30 27 29 31 27 25 24 18 16 19 11 5 22 31 34 28 13 21 40 39 38 40 38 36 33 32 31 29 28 27 26 25 25 23 21 21 21 22 22 20 19 18 17 17 16 15 14 13 13 13 13 14 14 15 15 16 16 17 17 18 18 18 18 16 15 15 15 16 17 17 18 20 21 20 19 19
34 34 35 33 32 34 34 33 33 34 33 30 33 33 22 11 12 10 7 10 7 9 27 32 27 23 12 16 35 43 41 41 39 36 34 33 32 30 28 26 26 25 24 24 22 21 22 23 23 22 21 20 19 18 17 16 14 13 13 13 14 14 14 14 15 15 15 16 17 17 17 16 15 15 15 15 16 16 16 16 17 19 21 21 20 20
33 33 35 33 31 34 37 36 35 37 37 36 39 36 20 5 4 6 3 3 6 10 27 35 23 13 10 12 25 40 41 39 39 35 32 32 31 29 27 26 26 25 25 25 23 22 23 24 24 24 23 21 20 19 17 15 14 15 15 14 13 13 13 13 14 15 15 16 16 15 15 14 14 14 15 16 16 16 15 16 17 20 22 23 23 21
24 23 33 39 34 34 39 39 36 39 38 37 41 36 24 11 3 4 4 3 4 7 21 31 16 5 12 13 19 35 39 37 38 35 33 33 31 29 27 26 26 25 26 25 24 23 23 24 25 25 23 21 19 18 16 15 15 15 13 12 11 11 12 13 14 15 15 14 13 12 12 12 13 14 14 15 15 15 15 15 18 21 23 23 22 20
24 21 30 37 34 33 38 39 35 34 34 35 38 34 30 25 13 5 5 8 14 12 11 15 6 8 17 19 20 28 33 36 35 33 34 33 31 29 27 26 26 25 25 25 23 23 23 23 24 23 21 20 18 16 15 15 14 12 11 10 11 12 13 14 14 13 12 11 11 11 11 11 12 13 13 14 14 15 15 16 19 21 22 21 18 17
22 21 27 32 33 32 34 37 36 31 28 32 34 33 34 33 20 8 6 11 18 12 3 6 12 16 20 20 23 26 29 35 34 33 34 33 31 30 28 28 27 26 26 24 22 22 22 22 21 20 19 17 16 14 13 12 11 10 10 11 11 13 14 14 13 12 10 10 10 11 11 11 12 13 13 13 14 15 15 17 19 21 21 19 17 15
20 17 24 33 35 32 30 32 36 33 27 27 31 33 31 27 23 15 6 7 9 5 1 6 15 23 21 16 23 30 30 33 34 34 34 33 32 31 29 28 27 26 26 24 23 22 21 21 19 18 16 15 14 12 10 10 11 11 11 12 13 13 13 13 12 11 10 10 10 11 11 12 12 12 12 12 13 14 15 17 19 20 20 19 17 15
23 15 21 34 34 30 30 30 34 37 30 25 29 33 27 17 18 20 9 4 6 3 2 7 15 21 22 22 31 34 31 32 34 34 33 32 32 31 30 28 26 27 27 25 24 22 20 19 17 16 15 13 12 10 9 10 12 12 11 11 12 12 12 12 11 10 10 10 11 11 12 12 12 12 12 13 13 14 15 16 17 18 19 19 17 16
26 17 15 30 34 28 30 33 35 38 34 26 25 31 30 20 17 22 16 7 8 5 2 7 9 12 16 22 32 35 32 34 35 34 34 32 32 31 29 28 28 28 27 26 24 21 19 17 16 14 13 12 11 10 9 11 12 11 10 10 10 10 11 11 11 10 10 11 11 12 12 12 12 12 13 13 14 14 14 15 16 17 18 18 18 17
25 20 13 23 32 28 30 38 42 40 36 30 26 30 34 28 19 19 18 15 10 5 4 5 3 9 15 17 23 31 33 35 36 36 35 33 31 30 28 27 27 27 27 26 22 18 17 16 15 14 13 11 10 9 9 10 11 11 9 8 9 10 11 11 11 11 11 12 12 12 12 12 12 12 13 13 14 14 15 15 15 16 16 17 18 18
19 19 16 20 30 30 30 37 44 41 34 31 30 30 34 32 23 12 10 18 16 7 8 9 3 8 16 16 22 31 33 34 37 36 34 31 29 27 26 24 25 26 26 23 17 16 17 17 16 14 12 11 10 9 9 9 11 11 9 9 9 11 12 12 12 12 12 12 12 12 12 13 12 12 13 13 13 14 14 15 15 15 15 16 17 18
18 14 16 22 29 30 27 29 36 38 33 29 30 31 30 29 28 16 6 14 19 11 10 13 6 7 17 21 25 31 33 34 35 34 32 30 28 27 25 23 24 25 22 17 16 17 18 17 15 13 11 10 9 8 8 8 10 10 9 9 10 11 12 12 12 12 12 12 13 13 13 13 13 13 13 13 14 14 15 15 15 15 15 15 16 17
21 12 15 24 26 27 26 25 30 35 34 28 28 32 29 26 30 23 10 16 22 15 12 12 3 6 18 23 25 27 30 32 32 32 32 31 30 28 25 23 23 21 17 17 19 19 18 16 13 11 10 9 9 8 8 8 9 9 10 10 11 12 13 13 13 13 12 13 13 14 14 14 14 14 14 14 15 15 16 16 16 15 15 15 16 16
23 16 15 20 14 15 19 18 22 33 39 33 28 32 31 26 30 28 17 15 16 14 17 14 4 7 18 23 26 25 26 28 30 32 32 31 30 29 26 23 20 18 18 20 20 18 16 14 12 10 10 10 9 9 8 8 9 10 11 11 12 13 14 14 14 13 13 13 14 15 15 16 16 16 15 16 16 16 17 17 17 17 17 17 17 16
23 16 17 20 11 8 12 14 21 34 40 35 27 32 35 27 26 29 22 14 9 9 17 17 13 18 22 24 28 28 26 27 28 28 29 28 27 28 26 22 18 18 20 20 20 18 16 13 12 12 11 10 9 8 8 8 9 11 11 11 12 14 14 14 14 13 13 14 15 16 16 17 17 17 16 16 17 17 17 18 19 19 19 19 19 18
23 16 18 25 23 18 17 19 24 28 31 29 22 25 34 30 25 26 23 17 14 13 17 19 21 29 30 26 28 29 28 27 26 26 27 26 26 26 24 20 19 21 21 21 19 17 15 13 12 11 10 9 8 8 9 9 9 10 11 11 13 14 14 14 14 13 14 15 16 16 17 18 18 17 17 17 17 18 18 19 20 20 21 21 21 20
22 18 18 24 28 26 21 17 20 23 25 25 19 18 28 32 30 27 23 19 19 13 16 21 23 27 32 30 27 30 31 28 27 25 23 23 24 24 21 20 22 22 21 20 18 15 13 12 11 10 9 8 8 9 9 8 9 10 11 12 14 14 14 14 14 15 15 16 17 18 18 19 19 18 18 18 18 19 19 20 20 21 21 22 22 22
21 19 20 22 23 22 21 16 15 20 22 21 20 18 22 28 32 33 26 18 19 17 17 28 24 20 28 31 28 31 32 29 27 23 19 20 21 21 22 23 23 22 20 17 14 13 12 11 10 10 9 9 9 9 8 8 9 9 11 13 14 15 15 15 15 16 17 18 19 19 19 19 20 20 20 20 20 20 20 21 21 22 22 22 22 23
19 16 19 22 20 17 19 18 14 16 20 20 18 17 20 26 30 31 23 13 14 19 23 31 26 20 25 29 30 32 31 28 25 19 16 19 21 23 25 24 23 20 16 14 12 12 11 10 10 10 9 9 8 8 7 7 7 9 12 14 15 16 16 16 16 17 19 20 20 20 20 20 20 21 21 21 21 22 22 22 22 22 23 23 23 23
19 14 17 22 20 15 18 19 14 13 15 13 12 12 15 21 25 24 18 12 12 21 29 31 30 29 29 30 32 33 31 28 22 17 17 21 23 25 24 22 19 17 14 13 12 11 11 11 11 10 10 9 9 8 8 8 8 10 13 14 15 15 14 14 16 17 19 20 20 20 20 20 21 21 22 22 23 23 23 23 23 23 23 24 24 24
22 14 16 22 18 13 17 16 10 10 9 8 12 13 10 14 19 19 17 15 15 25 36 36 33 33 32 32 33 32 30 26 22 20 21 22 23 22 20 18 16 15 14 13 12 12 12 12 12 11 11 11 11 10 10 10 10 12 13 14 15 14 14 14 15 17 18 19 20 20 21 21 21 22 22 22 23 23 23 23 23 23 24 24 24 25
25 17 14 19 15 9 14 13 6 7 5 5 12 16 16 17 21 20 18 15 16 23 32 34 31 28 27 30 33 33 29 25 22 21 21 21 21 19 16 15 14 13 12 12 12 13 12 12 11 10 9 9 8 8 8 9 10 11 13 14 14 14 15 15 17 18 19 20 21 21 21 21 21 22 22 23 23 23 24 24 24 24 25 25 26 26
23 19 13 15 13 8 12 13 9 9 4 4 10 18 21 21 23 21 20 19 20 23 25 26 25 25 26 28 30 32 30 27 24 23 22 20 18 15 14 13 12 11 12 13 14 13 11 9 8 5 4 4 5 6 8 10 11 12 13 14 14 14 15 16 18 19 20 21 21 21 21 21 21 22 23 23 24 24 25 25 25 26 27 27 28 28
21 18 14 14 13 11 12 10 6 3 5 9 12 17 22 21 19 20 22 24 26 25 22 21 23 26 28 28 29 30 31 30 28 25 23 21 18 14 13 13 12 12 13 13 12 10 7 6 5 4 3 4 5 6 9 11 12 14 14 14 14 14 15 16 17 19 19 20 21 21 21 21 21 22 22 23 23 24 25 25 26 27 28 28 29 29
23 18 15 14 11 12 14 11 5 3 8 13 12 14 21 23 19 20 24 27 26 22 19 20 23 25 27 28 29 30 30 30 28 25 23 21 19 16 13 13 14 14 13 10 8 7 7 6 5 4 3 3 5 7 9 11 13 15 15 16 16 16 16 16 16 17 18 19 20 20 20 20 21 20 20 21 22 23 24 25 25 26 27 28 28 28
23 20 20 16 10 11 16 15 10 8 9 12 13 12 16 21 19 17 20 24 23 19 17 18 20 25 27 27 29 30 30 29 27 25 25 23 20 17 15 15 15 13 11 8 7 8 7 6 5 3 2 3 5 7 9 11 14 15 16 17 17 15 15 15 15 16 17 17 17 18 18 19 20 19 19 21 22 23 24 24 24 25 26 26 26 26
19 19 23 18 11 16 20 15 9 6 5 11 15 12 13 16 15 14 17 20 19 16 16 16 18 22 24 24 26 29 28 27 26 27 28 25 20 18 18 16 13 11 10 9 8 7 6 5 4 4 3 3 4 6 8 10 12 13 15 16 15 14 13 13 13 14 15 15 15 16 17 18 18 19 20 21 22 23 24 24 25 25 25 26 26 26
15 16 22 19 14 19 20 12 5 3 7 15 18 14 14 16 15 14 15 19 20 17 15 15 15 17 19 18 20 24 26 26 29 31 28 24 22 21 18 15 14 13 10 8 8 8 5 4 4 3 3 4 4 6 8 8 9 10 12 13 14 13 12 11 12 13 13 13 14 15 16 17 18 19 20 21 22 23 24 25 25 26 26 26 26 26
15 15 18 17 18 20 16 10 6 3 8 16 19 16 15 16 16 14 11 16 24 22 17 16 13 13 15 15 18 24 24 22 25 29 27 24 24 21 17 16 17 14 10 9 10 8 5 5 4 3 4 5 5 6 7 7 8 8 9 11 11 12 12 12 12 13 13 13 13 15 16 16 18 19 20 21 22 23 24 25 25 26 26 26 26 26
17 16 12 14 21 23 17 11 8 7 12 16 17 17 18 17 16 15 11 14 23 25 21 19 15 13 16 19 21 25 24 19 20 24 26 26 23 19 18 19 19 15 12 12 11 7 6 6 5 4 5 6 6 6 6 5 5 6 7 9 9 10 11 11 11 12 12 12 13 14 15 16 17 18 20 21 22 23 23 24 24 25 25 25 25 25
17 15 13 15 20 21 17 13 11 11 16 20 17 18 20 17 16 19 16 13 19 23 22 21 19 19 21 23 23 24 26 25 23 23 24 25 21 18 19 20 17 14 14 14 12 8 7 6 4 4 5 6 6 7 5 3 4 5 5 6 7 8 9 9 10 11 12 12 13 14 15 16 17 17 18 20 21 22 23 23 24 24 25 25 26 26
16 16 18 20 19 17 16 12 9 10 17 23 20 18 19 17 17 19 17 14 19 23 22 22 23 23 23 24 24 26 27 28 26 24 23 23 19 18 20 18 16 15 15 13 11 9 6 5 4 5 5 5 5 5 4 3 3 2 1 2 3 5 7 8 9 11 12 13 13 14 15 16 17 17 18 19 21 22 22 23 24 24 25 25 26 26
15 15 19 21 18 16 15 10 7 11 19 23 20 19 20 19 18 18 15 15 21 23 22 23 25 23 23 23 25 28 28 27 26 24 22 21 20 20 20 17 15 16 15 13 10 8 6 5 5 5 4 4 3 2 2 1 2 3 3 3 4 6 7 9 9 11 11 12 13 13 14 16 16 17 18 19 20 21 22 23 23 24 24 25 25 25
13 13 16 19 19 17 16 13 12 15 20 20 18 18 19 19 20 20 17 15 20 22 21 21 20 20 22 23 25 28 28 26 25 23 21 22 21 19 18 17 16 16 15 12 10 7 6 7 7 5 3 2 2 2 1 2 5 5 4 6 7 8 9 9 10 11 12 12 12 13 14 14 15 16 17 18 19 20 21 22 23 23 23 24 24 24
11 11 12 15 18 17 15 14 14 16 18 18 17 18 18 17 18 20 17 15 17 17 16 15 16 18 22 23 25 27 26 26 26 23 22 21 19 17 18 18 18 16 13 11 10 9 8 8 7 5 3 4 5 4 4 5 7 7 7 8 9 9 10 11 11 12 13 13 13 14 14 14 14 15 16 17 17 18 19 20 21 22 23 23 23 23
13 12 11 13 17 16 15 15 14 16 17 18 17 18 19 18 17 16 15 15 14 14 14 15 16 19 23 24 25 25 25 25 26 23 21 20 18 19 20 18 15 14 12 12 11 10 10 8 6 6 7 8 7 5 6 7 8 9 9 10 10 10 11 11 11 13 13 14 14 15 15 15 16 17 18 18 19 20 20 21 21 22 23 23 24 24
14 13 12 15 16 15 16 17 16 15 15 16 15 16 18 17 16 16 15 15 14 15 17 18 19 21 24 26 25 23 23 24 24 22 21 21 21 20 19 16 14 13 14 13 12 11 10 8 8 9 10 10 8 8 9 9 10 10 11 11 11 12 11 11 12 13 14 15 16 17 17 18 19 20 20 20 21 22 22 23 23 23 24 24 25 25
10 11 14 17 17 16 18 19 17 16 16 15 14 15 16 15 15 16 16 16 16 18 19 20 21 22 23 25 24 22 22 22 22 21 20 21 20 18 16 14 15 15 15 14 13 12 11 11 11 12 12 11 10 10 10 10 11 12 11 11 12 12 12 13 14 15 16 17 18 19 20 21 20 20 21 22 22 23 24 24 25 25 26 26 26 26
7 8 11 14 15 15 18 19 17 15 15 16 16 17 17 16 15 15 16 16 18 19 19 22 24 25 24 23 22 21 21 21 19 19 20 19 17 16 15 16 16 15 15 15 14 14 14 14 13 13 13 13 12 12 12 12 12 12 12 12 12 13 13 15 16 16 17 18 19 20 21 21 21 21 22 22 23 24 24 25 25 25 26 26 26 26
9 9 9 9 9 11 13 16 16 13 12 14 17 19 18 17 15 14 15 18 20 20 19 21 23 25 26 25 22 21 21 18 16 16 18 18 17 17 17 16 16 16 17 17 17 17 16 16 15 14 13 13 13 13 13 13 13 13 12 12 13 14 15 15 16 17 17 18 19 20 20 21 21 22 22 22 23 23 24 24 24 25 25 26 26 26
Wind_Direction
193 195 203 209 213 211 207 209 217 217 211 213 220 218 216 223 224 225 231 215 198 196 195 201 216 223 213 189 175 168 181 200 208 207 201 199 203 207 207 203 203 209 212 208 204 208 199 187 203 236 228 185 182 185 166 163 153 140 135 111 82 71 71 90 87 63 55 42 20 12 5 1 2 4 3 358 355 350 342 337 335 335 335 335 337 337
195 203 209 209 211 210 208 211 211 209 213 217 222 220 214 222 226 224 230 215 195 193 196 198 211 217 199 176 170 169 186 205 211 205 197 195 197 202 208 206 207 213 210 203 200 204 203 196 199 213 222 212 204 197 173 167 165 154 162 103 30 20 17 19 13 2 7 12 4 -0 354 350 351 352 351 349 345 339 331 328 327 328 328 328 330 330
202 209 211 208 208 207 209 215 209 204 215 224 229 232 224 223 229 233 233 209 187 187 196 196 204 213 205 188 175 173 191 200 204 200 191 194 200 203 211 215 218 216 207 201 196 199 204 201 205 216 225 222 216 207 192 191 198 212 258 293 323 333 345 349 342 341 345 347 344 342 340 338 337 335 335 336 332 328 325 325 324 324 324 324 325 325
207 212 209 203 205 205 206 213 209 204 216 225 230 239 237 231 229 236 234 200 181 183 195 195 202 211 205 194 183 181 187 181 174 179 181 195 207 208 210 210 215 215 209 205 196 197 208 208 212 223 226 224 222 216 205 204 218 237 264 283 298 313 327 330 326 327 330 330 327 324 323 320 318 319 322 326 328 328 327 326 325 324 324 324 324 323
211 212 203 199 203 203 203 207 207 209 217 223 229 235 238 235 230 237 229 192 179 182 193 194 198 200 192 185 178 176 180 174 168 172 175 185 198 208 210 203 208 217 216 214 205 204 215 215 215 222 224 220 220 225 224 216 227 242 261 276 288 299 307 312 312 315 317 315 314 313 313 312 312 314 315 320 326 328 329 330 328 326 325 323 322 322
213 212 200 198 202 201 202 204 206 210 217 225 229 229 229 227 231 239 206 176 176 186 192 190 181 168 175 175 168 167 172 175 177 179 179 184 195 205 208 206 211 218 216 215 212 216 221 218 216 222 225 223 219 223 230 235 238 245 257 268 278 283 287 294 296 300 304 306 311 313 315 316 316 316 315 318 324 328 331 331 329 327 324 321 321 322
211 208 203 200 201 202 203 208 208 207 217 227 223 219 226 226 232 244 195 170 176 187 188 190 182 151 161 169 169 171 172 178 184 186 187 185 191 198 201 206 214 220 223 221 219 222 224 219 220 224 227 230 232 233 239 248 252 258 268 275 283 288 292 298 302 305 308 312 315 318 321 322 323 323 321 322 327 330 331 332 332 331 328 326 325 325
207 202 203 201 200 202 206 209 207 203 214 223 214 214 230 231 231 245 216 181 177 178 181 191 190 174 166 172 178 183 178 183 190 188 189 183 181 189 195 204 214 223 231 229 223 224 223 220 221 225 228 233 243 249 253 262 271 278 285 291 296 299 304 309 312 313 313 315 319 321 324 326 327 329 327 327 330 330 330 333 334 332 331 329 326 325
205 200 202 201 199 203 208 209 203 202 214 219 216 221 230 235 235 246 247 199 177 173 171 181 187 180 174 177 183 192 189 189 195 192 191 191 187 191 195 202 213 223 229 223 217 220 222 222 223 227 231 233 243 251 259 269 278 286 292 296 299 301 304 307 310 311 312 315 317 319 323 327 328 329 328 328 329 329 329 332 332 328 327 325 322 320
205 202 202 202 203 205 207 208 204 203 215 219 220 226 228 241 240 244 261 197 174 177 166 168 180 178 174 184 184 190 190 187 192 192 194 199 199 200 201 205 213 222 226 218 214 219 225 229 229 231 235 236 242 251 259 269 277 284 290 294 297 298 300 303 305 307 309 311 313 318 323 327 328 328 328 329 328 329 328 327 327 324 321 319 316 314
209 204 203 206 208 208 205 208 207 205 213 217 219 225 234 249 242 247 263 195 170 183 177 169 180 178 172 192 191 192 194 195 195 194 199 207 208 209 209 209 212 219 223 221 222 226 231 235 235 236 238 238 244 251 259 266 272 279 286 290 292 293 295 297 300 302 304 308 312 319 324 325 326 327 328 328 327 327 325 324 323 320 318 317 313 311
211 205 206 210 209 208 205 206 209 205 207 213 218 224 236 250 242 248 252 206 176 204 188 179 184 187 183 194 198 200 202 207 209 208 211 213 213 214 211 208 208 214 220 223 228 231 235 238 238 238 239 239 244 251 257 263 269 278 283 284 284 287 290 292 295 299 303 309 315 320 323 323 324 326 327 327 325 324 323 322 320 318 316 315 312 309
214 208 204 208 207 204 203 204 206 207 208 211 217 222 228 240 225 227 238 200 194 206 195 189 188 191 189 185 195 200 200 206 213 218 222 221 219 217 212 211 211 214 221 225 228 231 235 237 237 238 238 240 245 250 256 264 271 276 277 279 282 285 290 293 296 301 305 311 316 319 320 321 323 326 326 325 323 322 323 323 319 316 313 309 304 299
215 213 204 204 205 199 201 203 200 203 208 207 212 216 212 189 176 195 179 174 213 202 189 193 195 184 169 163 182 193 196 202 208 216 224 226 223 219 215 216 216 217 223 228 229 234 237 236 235 236 237 240 245 250 258 265 269 272 274 279 283 286 291 295 299 303 307 311 315 317 319 323 324 324 323 321 321 322 323 323 320 317 314 310 306 301
209 214 202 201 202 196 200 204 200 200 204 205 211 215 213 215 208 168 167 162 174 155 173 190 205 163 152 151 172 187 191 196 202 209 218 223 222 218 217 218 219 220 224 228 232 236 236 233 230 232 236 240 245 252 259 265 268 270 274 278 281 285 289 295 300 303 307 310 311 315 319 321 319 316 317 318 320 322 323 323 322 321 320 320 319 317
210 216 203 200 204 198 198 204 202 200 203 207 211 214 218 225 226 187 193 174 152 140 158 175 154 114 143 151 171 185 186 189 197 206 215 221 219 216 219 219 219 222 227 232 234 232 230 225 225 230 235 240 246 253 259 263 265 267 271 275 281 290 294 298 302 304 306 306 306 311 313 312 310 310 316 320 322 324 325 325 326 328 332 332 331 328
206 214 203 198 204 201 198 201 201 199 201 205 209 213 216 222 226 207 168 157 149 142 139 120 111 127 139 146 169 181 184 187 193 203 213 218 216 217 221 220 221 226 232 236 230 224 221 219 224 230 235 242 247 253 256 256 259 262 271 282 292 297 299 300 302 302 303 302 302 306 306 306 308 313 318 321 323 325 325 327 331 339 344 343 339 335
200 207 198 196 201 201 199 197 200 203 201 202 207 212 214 219 230 227 181 137 141 125 119 132 136 150 153 152 169 177 182 186 192 202 209 212 214 219 222 223 226 230 234 232 223 218 217 218 224 229 234 241 243 246 246 247 258 268 279 291 296 296 296 298 299 299 298 298 299 301 302 305 310 314 316 316 320 324 326 329 335 345 352 351 346 341
202 207 194 197 205 203 195 192 200 204 204 208 210 207 207 211 223 220 208 152 149 119 89 145 154 170 177 175 176 181 187 191 196 203 206 209 214 219 222 226 231 234 234 226 217 215 216 218 224 226 228 233 233 236 240 250 267 278 287 296 296 294 295 295 295 294 294 295 296 297 300 304 306 309 311 313 318 323 327 330 336 345 353 355 351 346
202 209 195 195 204 201 191 195 206 206 207 215 210 202 208 219 217 209 210 195 157 131 122 150 165 199 204 191 186 188 193 196 200 206 208 211 215 220 225 228 231 233 230 221 215 214 215 217 218 216 219 222 225 233 243 260 273 282 290 294 291 289 290 289 288 289 293 294 294 296 297 299 303 308 311 315 320 324 327 330 335 343 349 352 351 347
204 212 210 189 189 186 186 197 207 210 211 212 203 199 207 218 217 204 209 210 182 132 132 143 156 207 209 209 201 198 198 199 204 208 210 211 214 220 225 228 230 229 223 218 215 210 208 209 208 208 212 218 227 238 249 266 276 281 287 285 280 280 280 280 283 288 293 292 291 293 294 296 304 309 311 318 323 326 328 330 335 340 343 345 345 344
205 206 213 192 185 186 187 194 203 209 212 209 207 206 206 210 209 191 199 209 198 180 165 160 147 180 185 193 201 202 202 201 205 209 210 209 212 219 223 225 225 221 217 215 209 201 200 202 203 206 214 222 233 245 254 266 273 278 283 279 275 276 278 281 286 292 294 290 288 289 291 295 303 306 309 316 323 326 328 329 331 335 337 338 337 337
205 195 199 195 197 200 196 197 206 211 212 211 217 217 211 211 206 189 177 196 195 200 167 150 139 161 171 182 194 202 204 202 204 208 210 211 216 221 222 219 217 214 211 205 195 194 197 201 204 208 216 227 237 245 250 258 268 276 278 274 272 273 278 284 288 292 289 284 285 287 289 294 297 299 303 309 316 321 325 325 327 329 330 332 332 332
208 205 190 186 198 208 204 207 214 213 213 219 225 220 215 215 206 199 204 195 196 202 162 130 88 163 170 182 193 201 206 206 206 209 214 217 219 223 223 217 212 207 201 193 190 193 197 201 207 209 215 226 234 240 247 254 262 269 270 269 270 273 279 283 284 285 283 282 285 287 290 292 292 294 297 301 307 312 317 320 321 322 322 324 326 328
202 212 190 171 181 206 203 210 211 207 215 227 229 220 217 216 206 206 214 199 202 205 166 139 96 160 174 186 192 198 206 208 209 212 216 220 220 221 221 216 210 202 194 190 190 193 198 200 202 204 212 223 232 239 247 255 260 264 269 271 273 274 277 278 279 281 282 284 287 288 290 291 291 293 294 296 301 305 309 312 314 315 316 318 320 322
199 212 193 173 172 192 195 206 201 199 210 223 225 216 212 210 202 206 214 201 186 174 156 145 133 144 164 182 188 195 203 204 206 210 214 219 220 219 218 214 207 201 194 188 188 192 196 198 200 205 213 221 230 238 246 253 257 262 269 269 268 270 271 273 276 279 283 285 286 287 289 289 290 292 293 294 297 300 302 305 307 310 311 313 315 316
205 213 200 190 191 193 198 208 206 203 209 217 220 208 206 211 208 207 216 211 183 144 137 154 156 151 163 181 187 195 206 206 204 206 209 214 218 219 216 209 200 197 190 185 189 192 193 198 203 206 212 216 224 235 242 250 255 261 264 263 264 267 269 272 276 279 283 284 285 286 286 287 288 290 291 293 295 297 299 301 303 305 307 309 310 311
207 209 206 201 198 201 206 207 208 213 215 219 223 204 200 214 219 218 227 220 195 157 131 156 168 160 167 183 190 195 206 211 208 209 210 211 214 214 207 198 194 192 187 186 189 190 191 199 203 205 212 217 225 234 239 247 252 256 260 262 266 270 272 276 279 281 282 283 284 285 285 287 290 291 293 294 294 296 297 299 301 301 303 304 305 306
200 200 200 198 197 205 211 210 214 220 221 225 228 215 206 215 220 226 234 223 207 209 175 163 168 169 172 182 192 196 203 210 211 211 211 207 205 200 192 189 190 190 189 189 187 185 193 201 203 208 215 219 225 231 236 244 250 255 262 267 272 276 278 280 281 282 283 283 284 286 288 290 293 294 295 295 296 297 297 298 299 299 299 300 301 302
192 194 192 193 196 200 201 206 213 215 218 224 226 226 224 222 224 228 232 222 216 218 189 167 163 168 175 183 191 196 202 209 208 206 201 194 186 181 182 184 187 188 187 185 184 189 195 199 202 207 213 217 221 225 233 242 251 259 267 273 278 283 287 288 286 284 284 285 286 288 290 292 294 295 296 297 297 298 298 298 298 298 298 298 298 299
191 191 189 196 205 203 200 211 215 203 208 211 211 225 231 224 226 229 226 219 193 173 167 166 162 162 175 187 191 195 203 206 200 191 185 180 175 175 180 183 184 183 182 181 184 187 187 191 196 200 205 209 212 218 229 236 242 253 266 274 281 287 291 291 290 288 287 288 289 290 292 294 295 295 295 296 296 297 297 298 297 297 297 297 297 298
192 187 182 193 204 208 212 224 228 211 212 194 182 186 186 195 205 206 205 214 200 167 161 164 164 164 176 189 193 197 200 197 189 185 184 181 177 179 181 181 179 178 179 179 178 178 182 187 193 199 207 214 221 230 240 245 249 257 268 278 287 295 300 300 296 293 292 293 293 294 295 295 296 297 297 296 297 297 297 297 297 297 297 297 298 298
191 186 177 187 190 192 215 220 179 156 174 164 157 148 144 170 185 178 170 183 202 193 177 170 169 171 178 187 193 195 193 187 183 186 191 189 183 180 176 174 174 174 175 175 176 181 188 192 199 208 216 225 237 250 260 266 269 273 279 288 297 306 311 309 303 299 297 298 299 298 298 298 299 299 300 300 301 301 301 301 301 301 300 300 301 301
191 188 176 182 177 168 205 206 155 124 132 152 147 137 141 166 180 167 148 150 171 187 185 175 170 172 177 186 194 193 188 186 184 186 191 192 187 180 173 169 167 167 172 178 183 188 190 193 200 200 202 227 250 262 271 276 278 281 285 292 300 306 308 304 299 299 300 301 301 300 299 300 301 301 302 303 304 303 303 304 305 305 304 304 305 305
187 185 176 175 169 158 172 174 143 124 151 149 150 148 147 159 173 160 138 143 162 171 174 174 172 173 179 187 194 194 189 187 188 187 188 189 187 183 178 173 167 170 179 184 187 188 183 184 189 172 174 235 260 270 280 283 283 284 286 291 298 303 304 301 299 300 301 301 301 301 302 303 303 303 304 304 305 305 305 307 308 307 307 307 307 308
191 189 184 169 153 148 146 136 134 152 139 139 153 165 156 152 163 163 143 146 164 170 172 179 177 177 183 187 192 196 194 190 189 191 191 184 175 173 179 182 183 187 193 193 188 183 173 175 187 179 179 241 268 276 281 282 283 287 290 296 303 307 307 305 303 302 300 300 302 303 305 305 304 305 307 306 305 306 305 307 308 308 308 309 310 311
198 197 188 169 144 145 137 121 128 134 124 142 159 170 164 149 153 171 160 153 164 173 174 181 181 179 184 189 192 196 196 194 192 192 188 177 169 175 186 192 196 200 199 190 182 181 178 185 205 211 208 252 274 279 282 283 287 293 298 301 305 308 307 307 305 302 302 305 306 306 305 304 304 306 307 305 304 304 304 306 307 308 309 310 312 313
197 199 189 174 148 151 144 122 125 152 154 160 154 156 174 166 163 187 181 164 168 175 175 181 184 181 181 186 192 196 196 194 193 189 182 177 179 188 190 193 201 197 181 175 185 192 193 205 230 246 262 285 290 281 277 281 287 295 299 299 300 302 303 304 304 304 306 308 307 304 303 303 304 304 304 303 304 306 307 308 309 309 310 312 313 314
180 192 191 182 159 157 155 132 124 172 174 173 169 167 178 179 175 181 182 177 178 182 188 191 186 183 184 184 190 193 189 187 190 188 185 186 187 183 183 193 196 183 173 181 197 199 203 225 240 253 282 302 295 277 271 274 280 285 290 292 297 303 306 307 306 303 305 309 308 305 305 306 307 306 306 307 308 309 311 312 313 315 315 316 316 316
163 172 182 177 160 158 154 130 120 135 153 174 187 186 183 186 178 168 178 194 187 181 193 202 189 180 183 182 185 187 184 185 189 189 190 192 182 175 184 195 188 180 185 195 194 193 210 232 237 266 307 314 300 277 269 272 276 280 285 290 299 306 310 312 311 309 312 318 319 315 314 315 316 315 314 314 315 315 316 317 318 320 320 321 322 322
158 155 162 163 158 159 153 129 121 134 145 163 187 198 194 191 184 175 183 199 187 180 190 204 195 174 172 176 181 182 180 184 191 192 191 186 177 178 191 190 182 183 192 191 188 197 215 221 231 279 309 312 300 282 272 268 270 275 283 293 302 309 314 320 323 323 328 334 334 329 325 326 329 329 326 325 326 326 325 325 326 326 326 328 329 330
156 148 147 151 154 158 154 135 124 140 156 162 178 198 199 191 188 189 189 189 186 187 196 200 187 171 172 179 180 175 173 179 189 192 188 183 182 189 191 185 183 188 190 188 193 206 213 217 242 281 294 293 288 286 285 277 269 272 284 299 308 316 329 341 346 345 348 351 350 346 341 340 342 341 339 336 336 335 335 334 334 333 333 333 334 334
156 143 137 142 149 150 144 133 128 156 172 173 176 190 194 189 190 192 193 194 192 191 195 191 179 175 181 182 174 169 171 176 183 189 189 188 191 193 188 186 188 189 189 192 199 207 214 223 245 263 273 276 280 291 299 296 291 299 321 334 338 348 360 7 8 7 7 7 4 360 355 353 352 351 350 347 344 343 342 340 338 338 338 337 337 338
152 141 135 140 151 156 151 149 168 177 177 179 182 186 187 187 188 186 186 191 186 181 184 186 181 182 186 177 166 168 174 177 179 185 190 190 190 190 187 187 189 188 190 194 198 208 217 216 226 245 263 273 275 291 301 321 56 68 60 50 43 34 27 26 25 22 20 19 15 9 6 4 360 358 357 356 353 350 347 346 345 344 343 343 343 344
152 149 151 152 156 164 164 164 171 175 179 184 186 183 182 182 183 180 176 178 178 175 179 186 184 181 177 169 165 169 175 178 179 181 186 187 186 189 189 188 190 192 192 193 198 208 206 202 216 235 243 221 170 155 145 99 87 84 77 68 63 54 45 41 38 34 31 30 26 19 15 11 5 2 3 2 359 356 354 353 352 350 350 349 349 349
161 159 168 166 161 159 157 160 169 175 182 189 186 181 183 183 182 181 177 175 176 173 173 179 180 176 170 166 168 172 174 178 179 180 184 186 188 192 193 190 192 192 190 190 195 197 197 203 215 216 178 146 142 141 127 108 103 99 87 76 70 65 58 50 45 43 40 38 37 32 26 21 16 14 12 9 7 6 3 1 360 359 358 357 356 358
155 152 160 169 166 157 148 157 177 183 188 195 192 186 188 188 186 185 178 172 171 166 163 167 171 171 167 165 170 175 175 177 181 184 186 187 189 191 191 191 191 187 183 185 188 187 192 199 194 164 142 138 142 136 113 104 102 94 85 80 75 70 65 58 51 50 48 46 45 43 39 34 29 26 23 19 16 14 11 8 7 6 5 4 4 6
141 141 152 161 164 164 161 168 181 185 188 199 200 194 194 192 187 181 169 160 159 157 158 163 168 169 166 164 172 179 178 179 184 187 187 185 185 186 189 191 188 183 180 181 183 184 186 179 160 145 139 140 142 129 111 105 101 93 88 85 80 75 72 66 60 56 54 52 50 49 48 44 38 32 29 26 24 21 18 15 13 12 11 11 10 10
142 147 161 163 158 159 166 176 186 184 180 187 194 193 189 182 177 172 163 157 161 163 162 163 165 166 164 163 168 174 176 177 179 182 184 185 185 187 189 186 182 180 180 180 179 177 170 158 148 145 144 142 137 125 114 107 100 92 88 85 82 78 75 70 64 59 55 53 50 48 47 46 42 37 34 32 30 27 24 21 19 17 17 17 16 15
161 155 164 171 169 168 174 184 191 186 178 178 180 181 179 172 171 172 166 161 165 169 169 166 161 158 160 162 165 170 175 176 177 181 186 188 188 188 184 179 178 179 177 175 172 164 156 150 149 150 149 143 134 125 117 110 101 94 89 86 83 77 71 66 62 57 54 52 50 47 44 42 40 38 37 36 34 32 28 24 22 20 19 19 19 19
170 160 158 169 177 181 187 190 187 186 189 181 170 170 173 171 170 171 167 164 166 167 167 168 165 162 161 162 164 172 177 177 178 184 186 183 182 181 177 175 179 178 173 168 162 156 152 150 150 148 144 135 126 120 117 113 108 102 96 88 81 74 67 62 58 55 54 52 51 48 44 41 37 35 34 34 34 33 29 25 23 23 21 19 19 20
Height
3078 3079 3076 3073 3076 3081 3086 3089 3093 3097 3099 3100 3102 3103 3104 3105 3105 3104 3107 3110 3113 3115 3116 3117 3119 3121 3125 3126 3127 3129 3128 3126 3129 3131 3132 3134 3136 3137 3139 3142 3144 3145 3146 3147 3149 3150 3150 3151 3152 3153 3155 3156 3158 3158 3159 3159 3159 3160 3160 3161 3162 3163 3163 3164 3165 3166 3166 3167 3166 3166 3165 3165 3165 3166 3165 3165 3164 3164 3163 3163 3163 3162 3161 3160 3160 3159
3076 3072 3067 3071 3078 3083 3087 3089 3093 3096 3097 3098 3099 3101 3102 3102 3102 3101 3104 3108 3110 3114 3115 3116 3119 3121 3125 3126 3126 3129 3128 3126 3128 3130 3131 3133 3133 3135 3138 3141 3143 3144 3145 3146 3149 3149 3149 3150 3151 3153 3155 3156 3157 3158 3158 3158 3159 3160 3160 3161 3161 3162 3162 3163 3164 3164 3165 3166 3166 3166 3165 3164 3164 3164 3164 3164 3164 3164 3163 3163 3162 3161 3160 3159 3158 3157
3068 3063 3064 3074 3080 3084 3087 3089 3091 3093 3094 3095 3096 3098 3099 3099 3100 3099 3102 3105 3107 3111 3112 3114 3117 3120 3124 3126 3127 3129 3128 3126 3128 3129 3130 3130 3131 3134 3137 3139 3141 3142 3144 3145 3147 3148 3148 3148 3150 3152 3154 3156 3157 3157 3157 3158 3158 3159 3159 3160 3161 3161 3162 3162 3163 3163 3164 3165 3165 3165 3165 3165 3164 3164 3164 3164 3164 3164 3163 3162 3160 3159 3158 3157 3156 3155
3060 3059 3067 3076 3079 3083 3085 3087 3090 3091 3091 3091 3092 3094 3095 3097 3097 3097 3100 3104 3105 3107 3109 3112 3115 3119 3122 3124 3126 3127 3126 3126 3128 3128 3128 3129 3130 3132 3136 3138 3140 3141 3143 3144 3146 3147 3147 3148 3150 3151 3153 3155 3155 3156 3157 3157 3157 3158 3158 3159 3160 3161 3161 3162 3162 3162 3162 3163 3163 3164 3164 3164 3164 3164 3164 3163 3163 3162 3160 3159 3158 3156 3155 3154 3153 3152
3058 3061 3069 3075 3077 3080 3082 3085 3087 3088 3088 3087 3089 3091 3092 3093 3094 3094 3098 3102 3105 3106 3107 3110 3114 3117 3119 3122 3125 3124 3124 3127 3127 3126 3127 3128 3129 3132 3135 3138 3140 3141 3142 3143 3144 3145 3146 3148 3149 3151 3152 3154 3154 3155 3156 3156 3157 3157 3158 3158 3159 3160 3161 3161 3161 3161 3162 3162 3163 3163 3163 3163 3163 3162 3162 3161 3160 3159 3158 3156 3155 3153 3152 3151 3150 3149
3060 3064 3068 3072 3074 3077 3080 3081 3083 3085 3086 3085 3085 3087 3089 3090 3090 3094 3097 3099 3102 3104 3104 3107 3111 3116 3117 3119 3122 3121 3121 3125 3126 3126 3127 3128 3130 3131 3134 3138 3139 3141 3141 3142 3143 3144 3145 3147 3149 3150 3151 3153 3154 3154 3154 3155 3156 3157 3157 3158 3159 3160 3161 3161 3161 3162 3162 3162 3162 3161 3161 3160 3160 3160 3160 3159 3158 3157 3155 3154 3153 3152 3150 3149 3148 3147
3060 3064 3066 3069 3072 3075 3077 3078 3079 3083 3084 3082 3081 3084 3087 3088 3087 3092 3097 3097 3097 3099 3101 3104 3108 3113 3116 3117 3119 3118 3118 3121 3123 3124 3126 3128 3130 3132 3134 3137 3138 3139 3140 3141 3142 3143 3145 3147 3148 3149 3150 3151 3152 3153 3153 3154 3155 3156 3157 3157 3158 3158 3159 3160 3160 3160 3160 3159 3159 3158 3158 3157 3157 3157 3156 3156 3155 3153 3152 3152 3151 3149 3148 3147 3146 3144
3056 3061 3063 3066 3069 3071 3072 3072 3075 3080 3081 3078 3079 3083 3086 3087 3085 3089 3097 3097 3095 3097 3100 3102 3104 3109 3113 3115 3117 3117 3116 3118 3120 3123 3125 3127 3129 3131 3133 3135 3136 3138 3139 3140 3141 3142 3144 3146 3147 3148 3149 3151 3151 3152 3152 3153 3154 3154 3155 3156 3156 3156 3157 3157 3157 3157 3156 3156 3155 3155 3155 3154 3154 3154 3153 3153 3152 3151 3150 3149 3148 3147 3146 3145 3143 3142
3054 3057 3059 3062 3065 3066 3066 3068 3073 3077 3077 3076 3079 3082 3084 3086 3086 3088 3094 3095 3094 3096 3097 3098 3102 3106 3110 3112 3114 3116 3115 3115 3118 3121 3124 3126 3128 3130 3131 3133 3135 3137 3138 3140 3141 3142 3143 3145 3146 3147 3149 3150 3150 3151 3151 3152 3153 3153 3154 3154 3155 3155 3155 3155 3155 3154 3154 3154 3153 3153 3153 3152 3152 3151 3151 3151 3150 3149 3148 3147 3146 3145 3144 3143 3141 3140
3053 3054 3057 3061 3061 3062 3064 3068 3072 3074 3075 3077 3079 3081 3082 3084 3085 3088 3092 3091 3090 3092 3093 3095 3098 3103 3109 3110 3111 3113 3112 3112 3116 3120 3123 3126 3128 3129 3131 3133 3135 3136 3137 3139 3140 3142 3142 3143 3145 3147 3148 3149 3149 3150 3150 3151 3152 3152 3153 3154 3154 3154 3154 3154 3153 3153 3152 3152 3152 3152 3151 3151 3150 3150 3149 3149 3148 3147 3146 3145 3145 3143 3142 3140 3139 3138
3052 3054 3057 3058 3058 3060 3065 3069 3071 3072 3075 3078 3079 3079 3080 3080 3082 3086 3089 3089 3088 3089 3090 3093 3095 3100 3106 3108 3108 3110 3109 3109 3113 3117 3121 3124 3126 3128 3130 3132 3133 3134 3135 3137 3138 3139 3140 3142 3143 3145 3146 3147 3148 3149 3149 3150 3151 3152 3152 3153 3153 3153 3153 3153 3152 3151 3151 3151 3150 3150 3150 3149 3149 3148 3148 3147 3146 3145 3144 3143 3142 3141 3139 3138 3137 3136
3050 3051 3052 3053 3056 3060 3064 3067 3069 3071 3075 3078 3077 3078 3079 3077 3079 3083 3086 3087 3087 3086 3087 3091 3094 3096 3101 3105 3105 3107 3107 3108 3111 3114 3118 3120 3122 3124 3127 3130 3131 3133 3134 3135 3136 3137 3139 3140 3141 3143 3145 3146 3147 3148 3149 3150 3150 3151 3152 3152 3152 3152 3152 3151 3151 3150 3150 3149 3149 3149 3148 3148 3147 3146 3146 3145 3144 3144 3143 3141 3140 3138 3137 3136 3135 3133
3045 3047 3048 3051 3054 3058 3061 3064 3067 3069 3072 3074 3074 3076 3077 3076 3077 3082 3083 3084 3084 3083 3084 3089 3093 3096 3098 3100 3102 3104 3105 3106 3109 3113 3116 3118 3119 3120 3123 3126 3129 3131 3132 3133 3134 3136 3137 3138 3140 3142 3143 3144 3146 3147 3148 3149 3150 3150 3150 3150 3151 3150 3150 3150 3149 3149 3148 3148 3147 3147 3147 3146 3145 3145 3144 3143 3143 3142 3140 3139 3138 3136 3134 3133 3132 3131
3041 3043 3046 3048 3051 3054 3057 3058 3060 3062 3065 3068 3068 3070 3073 3073 3076 3080 3081 3082 3082 3081 3084 3088 3092 3095 3097 3099 3100 3102 3103 3104 3108 3112 3115 3116 3117 3119 3121 3123 3126 3128 3130 3131 3132 3134 3135 3137 3139 3141 3142 3144 3145 3146 3147 3148 3149 3149 3149 3149 3149 3149 3148 3148 3148 3147 3146 3146 3146 3145 3145 3144 3143 3143 3142 3141 3141 3140 3138 3137 3136 3134 3132 3130 3128 3127
3037 3038 3039 3042 3045 3048 3052 3053 3055 3058 3061 3064 3065 3068 3070 3071 3073 3076 3077 3080 3082 3082 3084 3088 3091 3094 3096 3099 3099 3100 3101 3103 3107 3110 3113 3114 3116 3118 3120 3122 3124 3125 3127 3129 3130 3132 3134 3135 3137 3139 3141 3142 3144 3145 3146 3147 3147 3147 3147 3147 3147 3147 3147 3146 3146 3145 3145 3144 3144 3144 3143 3143 3142 3141 3141 3140 3139 3137 3136 3135 3133 3131 3129 3127 3125 3124
3035 3034 3035 3040 3043 3045 3049 3052 3055 3059 3061 3063 3065 3067 3067 3068 3072 3073 3075 3077 3079 3081 3085 3088 3091 3094 3095 3098 3099 3100 3101 3103 3106 3109 3111 3113 3115 3117 3119 3121 3122 3124 3125 3127 3129 3130 3132 3134 3136 3138 3140 3141 3142 3143 3144 3144 3145 3145 3145 3145 3146 3145 3145 3144 3144 3143 3143 3143 3142 3142 3142 3141 3140 3140 3139 3138 3137 3135 3134 3133 3131 3129 3127 3124 3123 3122
3032 3033 3035 3039 3041 3043 3046 3050 3054 3056 3058 3060 3062 3062 3063 3068 3072 3072 3074 3076 3076 3081 3087 3088 3091 3094 3096 3098 3099 3099 3101 3103 3105 3108 3110 3112 3114 3116 3118 3120 3121 3122 3124 3125 3127 3128 3130 3132 3134 3136 3138 3139 3140 3141 3142 3142 3143 3143 3143 3144 3144 3143 3143 3142 3142 3141 3141 3141 3141 3140 3140 3140 3139 3138 3137 3136 3135 3134 3132 3131 3129 3127 3125 3123 3121 3120
3030 3032 3034 3036 3038 3041 3045 3049 3053 3055 3056 3058 3058 3060 3064 3069 3071 3071 3073 3075 3075 3081 3088 3089 3090 3093 3094 3096 3098 3098 3100 3102 3104 3106 3108 3110 3112 3114 3117 3118 3120 3121 3122 3124 3125 3127 3129 3131 3133 3135 3136 3137 3138 3139 3140 3140 3140 3141 3142 3142 3142 3141 3140 3140 3140 3140 3139 3139 3139 3138 3138 3138 3137 3136 3135 3134 3133 3132 3131 3129 3127 3125 3123 3121 3120 3119
3030 3031 3033 3035 3037 3040 3045 3048 3050 3052 3054 3056 3057 3060 3064 3066 3067 3067 3070 3071 3073 3080 3088 3090 3091 3093 3091 3091 3091 3094 3097 3100 3103 3105 3107 3109 3111 3113 3115 3117 3118 3120 3121 3122 3124 3125 3127 3130 3132 3133 3134 3135 3136 3137 3138 3138 3138 3139 3140 3140 3140 3139 3139 3138 3138 3138 3138 3137 3137 3137 3136 3136 3135 3135 3134 3133 3132 3131 3129 3128 3126 3124 3122 3120 3119 3118
3029 3030 3030 3033 3036 3039 3042 3044 3045 3046 3050 3053 3056 3059 3061 3063 3064 3064 3066 3067 3070 3077 3086 3091 3093 3093 3092 3090 3089 3091 3095 3098 3101 3103 3105 3108 3110 3112 3114 3115 3116 3117 3119 3120 3122 3124 3126 3128 3130 3131 3133 3134 3135 3136 3136 3136 3137 3138 3138 3139 3138 3137 3137 3137 3136 3136 3136 3136 3135 3135 3134 3134 3134 3133 3132 3131 3130 3129 3128 3126 3125 3123 3121 3120 3118 3117
3028 3029 3029 3031 3034 3037 3038 3038 3039 3042 3046 3049 3052 3055 3058 3060 3062 3063 3064 3065 3067 3072 3080 3088 3092 3091 3090 3092 3092 3092 3095 3097 3099 3101 3103 3106 3108 3110 3112 3113 3114 3115 3117 3119 3121 3123 3125 3126 3128 3129 3131 3132 3133 3134 3134 3134 3135 3136 3136 3137 3136 3135 3135 3134 3135 3135 3134 3134 3134 3133 3133 3132 3132 3132 3131 3130 3129 3127 3126 3125 3123 3122 3120 3119 3117 3116
3025 3028 3029 3030 3030 3032 3035 3037 3038 3041 3044 3047 3050 3052 3055 3057 3059 3061 3063 3064 3065 3069 3073 3079 3086 3087 3087 3090 3092 3092 3094 3096 3098 3100 3102 3104 3106 3108 3110 3111 3112 3114 3116 3118 3121 3122 3123 3124 3126 3128 3129 3130 3131 3132 3133 3133 3133 3134 3135 3135 3134 3133 3133 3133 3133 3133 3133 3133 3132 3132 3131 3131 3131 3130 3129 3128 3127 3126 3125 3123 3122 3120 3119 3117 3116 3115
3024 3027 3030 3030 3030 3031 3035 3039 3040 3042 3045 3048 3050 3052 3054 3056 3057 3058 3061 3063 3065 3067 3069 3073 3079 3084 3086 3087 3090 3092 3093 3095 3097 3099 3101 3103 3105 3106 3107 3109 3111 3113 3115 3118 3119 3120 3121 3123 3124 3126 3128 3129 3130 3131 3131 3132 3132 3132 3133 3133 3132 3132 3131 3132 3132 3131 3131 3131 3130 3130 3129 3129 3129 3128 3127 3126 3125 3124 3123 3121 3120 3119 3118 3116 3115 3114
3024 3026 3028 3031 3033 3034 3037 3040 3041 3043 3046 3047 3048 3050 3052 3054 3055 3057 3060 3063 3064 3065 3067 3072 3079 3084 3085 3087 3090 3092 3094 3095 3097 3099 3100 3101 3103 3104 3106 3108 3110 3112 3115 3116 3117 3118 3120 3121 3123 3125 3126 3127 3128 3129 3130 3130 3130 3130 3131 3131 3131 3130 3130 3130 3130 3130 3129 3129 3128 3128 3128 3127 3127 3126 3125 3124 3122 3122 3121 3119 3119 3117 3116 3115 3114 3113
3023 3025 3026 3028 3032 3035 3037 3038 3039 3041 3043 3045 3046 3048 3051 3052 3054 3057 3060 3062 3063 3064 3064 3070 3079 3083 3084 3086 3090 3092 3094 3095 3096 3097 3098 3100 3102 3104 3105 3108 3110 3112 3113 3115 3116 3117 3119 3121 3122 3124 3125 3126 3126 3127 3128 3129 3129 3129 3129 3129 3129 3129 3129 3128 3128 3128 3128 3127 3127 3126 3126 3125 3125 3124 3123 3121 3120 3120 3118 3117 3117 3116 3114 3113 3112 3111
3023 3024 3024 3025 3027 3029 3030 3029 3030 3034 3038 3041 3044 3045 3048 3050 3052 3055 3058 3060 3062 3064 3064 3067 3075 3081 3083 3085 3088 3091 3092 3093 3094 3095 3097 3099 3101 3103 3105 3107 3109 3111 3112 3114 3115 3116 3118 3120 3121 3123 3123 3124 3125 3125 3126 3127 3127 3127 3128 3128 3128 3127 3127 3127 3127 3127 3127 3126 3125 3125 3124 3123 3123 3122 3121 3120 3119 3118 3116 3115 3114 3113 3112 3111 3110 3109
3023 3024 3024 3024 3025 3026 3027 3028 3030 3033 3037 3040 3042 3043 3046 3048 3051 3054 3056 3058 3060 3063 3065 3067 3070 3077 3081 3083 3087 3090 3090 3091 3092 3093 3095 3097 3100 3102 3104 3106 3108 3110 3111 3113 3114 3115 3117 3119 3120 3121 3122 3122 3123 3123 3124 3125 3126 3126 3127 3126 3126 3125 3125 3125 3125 3125 3125 3124 3123 3123 3122 3121 3120 3120 3119 3118 3117 3116 3114 3113 3112 3111 3110 3109 3108 3107
3023 3023 3024 3025 3027 3028 3030 3032 3034 3035 3037 3039 3041 3042 3045 3048 3050 3052 3055 3056 3058 3061 3066 3069 3069 3072 3078 3081 3084 3086 3087 3089 3090 3092 3094 3097 3099 3101 3103 3105 3107 3108 3110 3111 3113 3115 3116 3118 3119 3120 3120 3121 3121 3122 3123 3124 3125 3125 3125 3124 3124 3124 3124 3124 3124 3124 3123 3122 3121 3121 3120 3119 3118 3117 3117 3116 3115 3113 3112 3111 3110 3109 3108 3107 3105 3104
3021 3022 3023 3025 3028 3030 3032 3034 3035 3036 3037 3040 3042 3043 3045 3048 3049 3052 3054 3056 3057 3057 3061 3067 3069 3070 3074 3078 3081 3083 3085 3087 3089 3092 3094 3096 3098 3100 3102 3104 3106 3107 3109 3110 3112 3114 3115 3116 3117 3118 3119 3119 3120 3121 3122 3123 3124 3123 3123 3122 3122 3122 3123 3123 3123 3122 3121 3120 3119 3119 3118 3117 3116 3115 3114 3113 3112 3111 3110 3109 3108 3106 3105 3104 3103 3101
3020 3021 3023 3025 3027 3030 3033 3035 3035 3036 3037 3040 3043 3043 3045 3047 3048 3050 3052 3054 3056 3056 3057 3062 3067 3070 3073 3076 3079 3082 3084 3086 3089 3092 3094 3096 3098 3100 3101 3103 3105 3106 3108 3110 3112 3113 3114 3115 3116 3117 3117 3119 3120 3120 3121 3122 3122 3122 3121 3120 3120 3121 3122 3122 3122 3120 3119 3118 3118 3117 3116 3115 3114 3113 3112 3111 3110 3109 3107 3106 3105 3104 3103 3101 3100 3099
3019 3020 3022 3025 3027 3029 3032 3033 3034 3035 3037 3039 3040 3041 3043 3045 3047 3048 3050 3051 3054 3056 3057 3059 3063 3068 3073 3076 3079 3081 3083 3086 3090 3092 3094 3096 3097 3099 3101 3102 3104 3106 3108 3109 3111 3112 3113 3114 3114 3115 3117 3118 3118 3119 3119 3119 3119 3119 3118 3118 3118 3119 3120 3120 3119 3118 3117 3116 3116 3115 3114 3113 3112 3111 3110 3109 3107 3106 3105 3104 3102 3101 3100 3099 3097 3096
3017 3020 3022 3024 3027 3029 3030 3032 3033 3035 3037 3038 3040 3041 3043 3044 3045 3046 3047 3049 3052 3056 3058 3059 3060 3064 3070 3074 3077 3080 3083 3086 3090 3092 3093 3095 3097 3099 3100 3102 3104 3106 3107 3108 3110 3111 3111 3112 3113 3114 3115 3116 3116 3116 3116 3117 3117 3117 3116 3116 3117 3118 3118 3118 3117 3116 3115 3114 3113 3113 3112 3111 3109 3108 3107 3106 3105 3104 3102 3101 3100 3099 3097 3096 3095 3093
3017 3019 3022 3024 3026 3028 3029 3031 3033 3035 3037 3040 3040 3041 3042 3042 3042 3044 3046 3049 3052 3055 3057 3058 3059 3062 3067 3070 3074 3078 3083 3087 3089 3091 3093 3095 3096 3099 3101 3102 3104 3106 3107 3108 3109 3109 3110 3111 3112 3113 3114 3114 3115 3115 3116 3116 3116 3115 3115 3116 3116 3117 3117 3116 3115 3113 3112 3112 3111 3110 3109 3108 3107 3106 3105 3103 3102 3101 3100 3098 3097 3096 3095 3093 3092 3090
3017 3019 3022 3024 3026 3027 3029 3030 3033 3036 3040 3042 3041 3040 3041 3040 3041 3044 3046 3049 3053 3056 3057 3058 3060 3062 3066 3069 3072 3076 3081 3085 3088 3090 3092 3095 3096 3099 3101 3103 3104 3105 3106 3107 3107 3108 3109 3111 3112 3113 3114 3114 3114 3115 3115 3115 3114 3114 3114 3115 3115 3115 3115 3114 3113 3111 3110 3109 3108 3107 3107 3105 3104 3103 3102 3101 3100 3098 3097 3095 3094 3092 3091 3090 3088 3087
3016 3019 3022 3024 3025 3027 3028 3030 3035 3039 3041 3042 3042 3040 3040 3040 3041 3044 3048 3051 3054 3057 3059 3060 3061 3063 3066 3069 3072 3075 3078 3082 3085 3088 3091 3094 3097 3099 3101 3103 3104 3105 3105 3106 3107 3109 3110 3111 3112 3113 3113 3113 3113 3114 3114 3113 3113 3113 3113 3113 3113 3113 3113 3112 3111 3110 3109 3107 3106 3105 3104 3103 3102 3101 3100 3098 3097 3095 3094 3093 3091 3089 3088 3086 3085 3083
3016 3019 3022 3024 3026 3028 3029 3031 3037 3041 3041 3041 3041 3041 3041 3041 3042 3045 3049 3052 3055 3058 3060 3061 3062 3064 3066 3068 3071 3075 3078 3081 3084 3088 3091 3094 3097 3099 3101 3102 3103 3104 3105 3107 3108 3109 3110 3110 3111 3112 3113 3113 3113 3113 3113 3112 3111 3111 3111 3111 3111 3111 3111 3110 3109 3108 3106 3105 3104 3103 3102 3101 3100 3099 3098 3096 3095 3093 3091 3090 3088 3086 3085 3083 3082 3080
3016 3018 3021 3024 3026 3028 3030 3033 3039 3042 3041 3041 3041 3042 3043 3044 3044 3046 3049 3052 3055 3057 3059 3061 3062 3064 3066 3068 3071 3074 3077 3081 3084 3088 3091 3094 3096 3098 3100 3101 3102 3104 3106 3107 3108 3109 3109 3110 3110 3111 3112 3112 3112 3112 3111 3111 3110 3109 3109 3109 3109 3109 3109 3108 3107 3106 3105 3104 3103 3101 3100 3099 3098 3097 3095 3094 3092 3090 3089 3087 3086 3084 3082 3081 3079 3077
3016 3018 3019 3022 3026 3028 3029 3034 3039 3042 3041 3040 3040 3042 3045 3047 3047 3048 3050 3052 3054 3056 3058 3060 3062 3063 3065 3068 3070 3073 3076 3081 3084 3087 3089 3092 3094 3097 3099 3100 3102 3104 3106 3107 3108 3108 3109 3109 3109 3109 3110 3111 3111 3111 3111 3110 3109 3109 3108 3107 3107 3107 3107 3106 3105 3104 3103 3102 3101 3099 3098 3097 3096 3094 3093 3091 3090 3088 3086 3085 3083 3082 3080 3078 3076 3075
3015 3018 3019 3021 3026 3028 3028 3032 3036 3038 3039 3040 3040 3043 3046 3047 3048 3049 3050 3050 3052 3055 3057 3059 3061 3063 3065 3067 3069 3072 3075 3079 3082 3085 3088 3090 3093 3096 3098 3100 3102 3103 3105 3107 3107 3107 3108 3108 3108 3108 3109 3110 3110 3110 3110 3109 3109 3108 3107 3106 3105 3105 3105 3104 3103 3102 3101 3100 3099 3098 3096 3095 3094 3092 3091 3089 3088 3086 3084 3083 3081 3080 3078 3076 3075 3073
3016 3018 3019 3021 3024 3027 3029 3031 3033 3035 3037 3039 3041 3043 3044 3045 3047 3048 3048 3047 3049 3053 3056 3059 3061 3063 3065 3068 3070 3072 3074 3077 3080 3084 3087 3090 3092 3095 3097 3099 3101 3102 3104 3105 3105 3106 3106 3107 3107 3108 3108 3108 3108 3108 3108 3108 3107 3107 3105 3105 3104 3104 3103 3102 3102 3101 3100 3099 3097 3096 3095 3093 3092 3090 3089 3088 3086 3084 3083 3081 3080 3078 3076 3075 3073 3071
3017 3018 3020 3021 3023 3026 3028 3030 3032 3034 3036 3038 3040 3042 3042 3044 3045 3045 3045 3046 3048 3052 3056 3059 3062 3063 3066 3068 3069 3072 3075 3079 3082 3085 3087 3089 3091 3093 3095 3097 3099 3101 3102 3103 3104 3104 3105 3105 3106 3107 3107 3106 3106 3106 3106 3106 3106 3105 3104 3104 3103 3102 3102 3101 3100 3099 3098 3097 3096 3095 3093 3092 3091 3090 3088 3086 3085 3083 3082 3080 3079 3077 3075 3074 3072 3070
3017 3018 3020 3021 3023 3026 3028 3030 3033 3034 3035 3037 3038 3040 3041 3042 3043 3044 3046 3048 3050 3053 3056 3059 3061 3063 3065 3067 3069 3071 3075 3079 3082 3085 3087 3089 3091 3093 3095 3097 3098 3100 3101 3102 3103 3103 3103 3104 3105 3106 3105 3105 3104 3104 3104 3105 3105 3104 3104 3103 3102 3101 3101 3100 3099 3098 3097 3096 3095 3094 3092 3091 3090 3089 3087 3086 3084 3083 3081 3079 3078 3076 3074 3072 3071 3069
3016 3018 3020 3022 3024 3026 3029 3032 3033 3034 3034 3035 3036 3038 3040 3042 3043 3045 3047 3049 3051 3053 3056 3058 3059 3061 3063 3065 3068 3072 3075 3078 3080 3084 3086 3088 3091 3093 3094 3096 3097 3099 3100 3101 3101 3102 3103 3104 3104 3104 3104 3103 3103 3103 3103 3103 3103 3103 3103 3102 3101 3100 3100 3099 3099 3098 3097 3096 3095 3093 3092 3091 3089 3088 3087 3085 3084 3082 3080 3079 3077 3075 3074 3072 3070 3068
3016 3018 3019 3021 3024 3026 3028 3030 3031 3032 3033 3035 3036 3037 3039 3041 3043 3046 3047 3048 3050 3052 3055 3056 3058 3060 3062 3065 3068 3071 3075 3077 3080 3083 3085 3088 3090 3092 3094 3095 3096 3098 3099 3100 3100 3101 3102 3103 3103 3102 3102 3102 3102 3102 3102 3102 3102 3102 3102 3101 3101 3100 3099 3099 3098 3097 3097 3096 3094 3093 3092 3091 3089 3088 3087 3085 3084 3082 3080 3079 3077 3075 3073 3071 3069 3067
3017 3018 3019 3021 3023 3025 3027 3029 3030 3031 3033 3035 3036 3038 3039 3041 3043 3045 3047 3048 3050 3051 3054 3056 3057 3059 3062 3065 3068 3071 3074 3077 3080 3082 3085 3087 3089 3091 3092 3094 3095 3096 3098 3099 3100 3100 3101 3102 3101 3101 3101 3101 3102 3101 3101 3101 3102 3101 3101 3100 3100 3100 3099 3098 3098 3097 3096 3096 3095 3093 3092 3091 3090 3088 3087 3086 3084 3082 3080 3079 3077 3075 3073 3071 3069 3067
3017 3019 3021 3022 3024 3026 3028 3029 3030 3031 3033 3035 3036 3038 3039 3041 3043 3044 3046 3048 3050 3051 3054 3056 3058 3059 3062 3065 3068 3071 3074 3077 3080 3082 3084 3086 3088 3090 3091 3092 3094 3095 3097 3098 3098 3100 3100 3100 3100 3100 3101 3101 3101 3101 3101 3101 3101 3101 3101 3100 3100 3100 3099 3098 3098 3097 3096 3096 3095 3094 3093 3091 3090 3089 3087 3086 3084 3083 3081 3079 3077 3075 3073 3071 3069 3067
3018 3019 3021 3022 3024 3025 3028 3030 3031 3032 3033 3034 3036 3037 3039 3041 3043 3044 3046 3048 3049 3051 3053 3056 3058 3060 3062 3065 3069 3072 3074 3077 3079 3081 3083 3085 3087 3089 3090 3091 3093 3094 3096 3097 3098 3099 3099 3099 3099 3099 3100 3101 3101 3101 3102 3102 3101 3101 3101 3100 3100 3100 3099 3099 3098 3097 3097 3096 3095 3094 3093 3092 3090 3088 3087 3085 3084 3082 3081 3079 3077 3075 3073 3071 3069 3067
3018 3019 3021 3022 3023 3025 3027 3029 3030 3031 3032 3034 3035 3037 3038 3040 3042 3044 3046 3048 3049 3051 3053 3056 3058 3060 3062 3065 3069 3072 3074 3077 3078 3080 3082 3084 3086 3087 3088 3090 3092 3093 3094 3096 3097 3097 3098 3098 3099 3099 3100 3101 3101 3102 3102 3102 3101 3101 3101 3101 3100 3100 3100 3099 3099 3098 3097 3096 3095 3094 3093 3091 3090 3088 3087 3085 3084 3082 3081 3079 3077 3075 3073 3071 3069 3067
3018 3019 3021 3022 3023 3024 3026 3028 3029 3030 3032 3033 3034 3036 3037 3039 3041 3043 3045 3047 3049 3051 3053 3055 3058 3061 3064 3066 3069 3072 3074 3076 3078 3080 3082 3083 3085 3086 3088 3089 3091 3093 3094 3095 3096 3096 3097 3098 3099 3100 3101 3101 3102 3102 3102 3102 3101 3101 3101 3101 3101 3101 3100 3100 3099 3098 3097 3095 3094 3093 3092 3091 3090 3089 3088 3086 3084 3083 3081 3079 3077 3076 3074 3072 3070 3068
3019 3020 3021 3022 3023 3024 3025 3026 3027 3029 3031 3032 3033 3035 3037 3039 3041 3043 3045 3047 3049 3051 3053 3055 3058 3061 3065 3067 3070 3072 3074 3076 3078 3080 3081 3083 3084 3085 3087 3089 3090 3092 3093 3094 3095 3096 3097 3098 3099 3100 3101 3102 3102 3102 3102 3102 3102 3102 3102 3102 3102 3101 3100 3100 3099 3097 3096 3095 3094 3093 3092 3091 3090 3089 3088 3087 3085 3084 3082 3080 3078 3076 3075 3073 3071 3069
3018 3020 3021 3022 3023 3024 3025 3026 3028 3029 3030 3032 3033 3035 3037 3040 3042 3044 3046 3048 3050 3052 3054 3056 3058 3060 3063 3066 3069 3072 3074 3076 3078 3079 3080 3082 3083 3085 3086 3088 3090 3091 3092 3093 3094 3095 3097 3098 3100 3101 3102 3102 3102 3102 3102 3102 3102 3102 3102 3102 3102 3101 3100 3100 3099 3098 3097 3096 3095 3094 3093 3092 3090 3089 3088 3087 3086 3084 3083 3081 3080 3078 3076 3074 3072 3070